Weather in Gornovoye

Russia / Altai Krai     53°04′29″N   85°20′13″E
temp.,
°C
wind,
m/s
gust,
m/s
humid.,
%
clouds,
%
prec.,
mm/h
press.,
hPa
HPBL,
m
21 june, mon
mon2101:00+6sse511951 0.3 1013211
04:00+5sse511941 0.0 1011196
07:00+7se5118977 0.0 1009258
10:00+10se51080100 0.1 1008262
13:00+10sse3894100 2.1 1009332
16:00+11ssw41088100 0.4 1009657
19:00+14sw4977100 0.4 1008815
22:00+10s1187100 0.0 100810
22 june, tue
tue2201:00+10e4892100 0.0 1006160
04:00+9ese2696100 1.8 1005185
07:00+10ssw4696100 3.8 1005196
10:00+12sw8128270 0.6 10081119
13:00+15sw91261100 0.6 10081747
16:00+15sw7116529 0.1 10091656
19:00+13wsw7127530 0.1 10101322
22:00+10sw7137988 0.0 1012799
23 june, wed
wed2301:00+9sw61196100 0.1 1013598
04:00+9sw61098100 1.1 1013636
07:00+8wsw5897100 1.7 1015448
10:00+11wsw4685100 0.1 1016561
13:00+13sw5674100 0.9 10151346
16:00+15ssw4564100 0.7 10141370
19:00+14s3471100 0.8 1013931
22:00+11se3583100 0.1 101291
24 june, thu
thu2401:00+11ese4879100 0.1 1008168
04:00+10e61378100 0.1 1005277
07:00+10ese41081100 0.2 1003213
10:00+11sw5992100 0.7 1005513
13:00+13sw12197372 0.9 10061485
16:00+14sw10176610 0.1 10061645
19:00+12sw81577100 0.1 10071343
22:00+10sw816832 0.0 10091030
25 june, fri
fri2501:00+8ssw7148353 0.0 1009830
04:00+8ssw71391100 0.6 1009777
07:00+9ssw71297100 0.9 1009793
10:00+9sw71297100 0.3 1011705
13:00+12wsw698090 1.1 10111034
16:00+13wsw468283 0.7 1011772
19:00+14wsw457642 0.8 1011880
22:00+9wsw369696 0.4 1012131